GW4151 Weather Reports


time (UTC)temp
C
wind
direction
speed
KPH
gust
KPH
rain 1hr
cm
rain 24hr
cm
rain mn
cm
humidity
%
barometer
mb
20260831014957 23 261 3.2 4.8 0.00 2.41 2.41 82 995.1
20260831013455 23 240 1.6 6.4 0.00 2.41 2.41 82 994.8
20260831011955 23 208 4.8 9.7 0.00 2.41 2.41 83 995.0
20260831010452 23 174 8.0 9.7 0.00 2.41 2.41 83 994.8
20260831004949 23 262 4.8 11.3 0.00 2.41 2.41 83 994.7
20260831003449 23 181 1.6 11.3 0.00 2.41 2.41 83 994.6
20260831001949 23 174 1.6 4.8 0.00 2.41 2.41 83 994.5
20260831000448 23 220 9.7 12.9 0.00 2.41 2.41 83 994.6
20260830234943 23 246 6.4 12.9 0.00 2.41 2.41 82 994.8
20260830233440 24 193 8.0 11.3 0.00 2.41 2.41 82 994.6
20260830231940 24 126 3.2 11.3 0.00 2.41 2.41 82 994.7
20260830230436 25 219 6.4 9.7 0.00 2.41 2.41 80 994.8
20260830224931 25 261 3.2 14.5 0.00 2.41 2.41 79 994.6
20260830223429 25 218 11.3 14.5 0.00 2.41 2.41 77 994.6
20260830221929 25 208 6.4 9.7 0.00 2.41 2.41 77 994.9
20260830220427 25 216 6.4 22.5 0.00 2.41 2.41 75 994.9
20260830214926 26 172 6.4 12.9 0.00 2.41 2.41 73 994.7
20260830213423 26 200 8.0 22.5 0.00 2.41 2.41 70 994.9
20260830211919 27 129 9.7 14.5 0.00 2.41 2.41 67 995.0
20260830210415 27 141 14.5 20.9 0.00 2.41 2.41 65 995.0
20260830204913 28 185 6.4 16.1 0.00 2.41 2.41 64 995.0
20260830203410 28 113 11.3 16.1 0.00 2.41 2.41 62 995.2
20260830201906 28 235 14.5 27.4 0.00 2.41 2.41 59 995.1
20260830200401 28 200 9.7 17.7 0.00 2.41 2.41 57 995.0
20260830194900 30 252 9.7 16.1 0.00 2.41 2.41 54 994.9
20260830193359 30 237 11.3 16.1 0.00 2.41 2.41 56 994.5
20260830191857 29 192 11.3 20.9 0.00 2.41 2.41 56 994.8
20260830190353 28 255 11.3 16.1 0.00 2.41 2.41 62 994.6
20260830184848 28 290 4.8 14.5 0.00 2.41 2.41 64 994.6
20260830183348 27 211 4.8 16.1 0.00 2.41 2.41 68 994.8
20260830181847 27 174 11.3 22.5 0.00 2.41 2.41 67 994.5
20260830180342 27 190 9.7 11.3 0.00 2.41 2.41 68 994.3
20260830174842 27 181 3.2 9.7 0.00 2.41 2.41 70 994.6
20260830173340 27 249 8.0 16.1 0.00 2.41 2.41 70 994.6
20260830171839 26 166 9.7 14.5 0.00 2.41 2.41 73 994.5
20260830170335 26 263 6.4 11.3 0.00 2.41 2.41 78 995.1
20260830164832 25 229 6.4 12.9 0.00 2.41 2.41 79 995.2
20260830163331 23 196 3.2 12.9 0.00 2.41 2.41 83 995.2
20260830161828 23 170 12.9 16.1 0.00 2.41 2.41 85 995.4
20260830160324 23 204 6.4 17.7 0.00 2.41 2.41 87 996.0
20260830154821 21 260 4.8 14.5 0.00 2.41 2.41 95 995.5
20260830153320 20 202 3.2 11.3 0.00 2.41 2.41 98 995.8
20260830151820 20 204 8.0 12.9 0.00 2.41 2.41 98 996.0
20260830150320 19 187 9.7 24.1 0.00 2.41 2.41 98 995.7
20260830144817 19 227 9.7 20.9 0.00 2.41 2.41 99 995.7
20260830143314 18 155 11.3 20.9 1.07 2.39 2.39 99 996.0
20260830141810 18 186 8.0 16.1 0.00 2.16 2.16 99 996.3
20260830140306 18 155 6.4 20.9 0.30 2.16 2.16 99 997.0
20260830134804 18 182 8.0 12.9 0.13 2.11 2.11 99 997.2
20260830133301 18 171 0.0 3.2 1.07 2.01 2.01 99 997.7
20260830131757 18 164 0.0 0.0 0.30 1.73 1.73 99 997.8
20260830130253 18 187 0.0 0.0 0.43 1.68 1.68 99 998.0
20260830124751 18 185 0.0 0.0 0.30 1.57 1.57 99 998.2
20260830123251 18 192 0.0 0.0 0.18 1.47 1.47 99 997.8
20260830121750 18 24 4.8 4.8 0.97 1.37 1.37 99 998.2
20260830120247 18 168 0.0 0.0 0.30 1.17 1.17 99 998.0
20260830114747 18 164 0.0 0.0 0.97 1.04 1.04 99 997.6
20260830113243 18 146 1.6 1.6 0.48 0.86 0.86 98 997.9
20260830111743 18 207 1.6 3.2 0.30 0.74 0.74 98 997.8
20260830110240 18 282 3.2 3.2 0.00 0.69 0.69 97 996.8
20260830104738 18 205 0.0 0.0 0.13 0.61 0.61 96 996.8
20260830103235 18 173 3.2 9.7 0.30 0.58 0.58 93 996.5
20260830101731 18 195 3.2 14.5 0.00 0.53 0.53 93 996.1
20260830100226 18 162 9.7 12.9 0.18 0.53 0.53 94 995.2
20260830094722 18 162 6.4 9.7 0.48 0.48 0.48 94 995.5
20260830093221 20 169 8.0 11.3 0.13 0.28 0.28 89 995.7
20260830091719 19 152 4.8 14.5 0.00 0.25 0.25 89 996.2
20260830090214 19 227 6.4 11.3 0.00 0.25 0.25 93 996.1
20260830084710 18 213 3.2 6.4 0.00 0.25 0.25 97 996.9
20260830083208 18 180 0.0 0.0 0.48 0.25 0.25 95 996.8
20260830081704 19 159 3.2 6.4 0.00 0.05 0.05 92 997.2
20260830080200 19 168 1.6 9.7 0.00 0.05 0.05 92 997.0
20260830074656 20 153 3.2 4.8 0.36 0.05 0.05 92 996.9
20260830073155 20 195 0.0 6.4 0.00 0.00 0.00 91 996.7
20260830071651 19 176 0.0 0.0 0.00 0.00 0.00 92 996.9
20260830070151 19 181 0.0 0.0 0.00 0.00 0.00 92 997.1
20260830064648 20 165 0.0 0.0 0.00 0.00 0.00 92 997.5
20260830063143 20 182 0.0 0.0 0.00 0.00 0.00 92 997.4
20260830061638 19 176 0.0 0.0 0.00 0.00 0.00 92 997.6
20260830060133 19 171 0.0 0.0 0.00 0.00 0.00 94 997.8
20260830054631 19 175 0.0 0.0 0.00 0.00 0.00 93 997.8
20260830053127 20 197 0.0 0.0 0.00 0.00 0.00 91 997.9
20260830051624 20 149 1.6 3.2 0.00 0.00 0.00 91 997.7
20260830050120 20 211 1.6 3.2 0.00 0.00 0.00 92 997.4
20260830044618 20 168 0.0 1.6 0.00 0.00 0.00 93 997.5
20260830043114 19 169 1.6 1.6 0.00 0.00 0.00 94 997.5
20260830041611 20 171 0.0 1.6 0.00 0.00 0.00 94 997.5
20260830040108 20 138 1.6 3.2 0.00 0.05 0.05 94 997.6
20260830034603 20 176 0.0 0.0 0.00 0.05 0.05 95 997.8
20260830033058 20 174 0.0 0.0 0.00 0.05 0.05 95 997.8
20260830031553 20 174 0.0 0.0 0.00 0.03 0.03 94 997.8
20260830030051 20 181 0.0 3.2 0.00 0.03 0.03 92 998.0
20260830024551 20 180 0.0 1.6 0.00 0.03 0.03 92 998.1
20260830023049 21 176 1.6 9.7 0.00 0.00 0.00 88 997.9
20260830021544 21 207 3.2 4.8 0.00 0.00 0.00 88 998.0